Regional Weather Roundup
Issued by NWS

Home | Current Version | Previous Version | Graphics & Text | Print | Product List | Glossary Off
Versions: 1 2 3 4 5 6 7 8 9 10 11 12 13 14 15 16 17 18 19 20 21 22 23 24 25 26 27 28 29 30 31 32 33 34 35 36 37 38 39 40 41 42 43 44 45 46 47 48 49 50

000
ASUS43 KMPX 051210
RWRMN
WEATHER ROUNDUP FOR MINNESOTA
NATIONAL WEATHER SERVICE TWIN CITIES/CHANHASSEN MN
700 AM CDT WED AUG 05 2015


NOTE: "FAIR" INDICATES FEW OR NO CLOUDS BELOW 12,000 FEET WITH NO
SIGNIFICANT WEATHER AND/OR OBSTRUCTIONS TO VISIBILITY. N/A MEANS
CURRENT SKY AND/OR WEATHER CONDITIONS ARE NOT AVAILABLE.

MNZ060>063-068>070-051300-
   Twin Cities Metro

CITY           SKY/WX    TMP DP  RH WIND       PRES   REMARKS
TWIN CITIES    PTCLDY    62  57  83 E8        30.05S
6HR MIN TEMP:  61; 6HR MAX TEMP:  70;

ST PAUL        CLEAR     61  56  83 E3        30.06R
CRYSTAL        CLEAR     60  57  89 CALM      30.04S
BLAINE         CLEAR     61  57  88 E3        30.05S
LAKEVILLE      CLEAR     55  54  94 CALM      30.05S
EDEN PRAIRIE   CLEAR     61  56  83 CALM      30.04R
6HR MIN TEMP:  58; 6HR MAX TEMP:  67;

SOUTH ST PAUL  CLEAR     61  55  81 CALM      30.05S
LAKE ELMO      FAIR      55  54  94 CALM      30.07S
$$
MNZ001>005-007-008-013>017-022>024-027-028-051300-
   Northwest Minnesota

CITY           SKY/WX    TMP DP  RH WIND       PRES   REMARKS
BEMIDJI        CLEAR     48  46  93 CALM      30.07S
HALLOCK        PTCLDY    52  50  93 E5        30.03S
ROSEAU         CLEAR     54  48  82 SE3       30.07S
WARROAD        CLEAR     54  50  87 S3        30.08S
THIEF RVR FALL CLEAR     54  50  87 SE5       30.06R
CROOKSTON      PTCLDY    55  52  88 SE6       30.04R
FOSSTON        CLEAR     54  48  82 CALM      30.05F
DETROIT LAKES  PTCLDY    59  52  77 SE6       30.06F
MOORHEAD       MOCLDY    57  54  88 SE3       30.04R
PARK RAPIDS    CLEAR     54  50  86 E3        30.07F
MAHNOMEN       FAIR      56  53  87 SE5       30.04F
$$
MNZ006-009>011-018-025>026-051300-
   North Central Minnesota

CITY           SKY/WX    TMP DP  RH WIND       PRES   REMARKS
BAUDETTE       CLEAR     50  47  89 CALM      30.08F
FLAG ISLAND    CLEAR     64  55  72 S7        30.07R
INTL FALLS     PTCLDY    43  43 100 CALM      30.10R
6HR MIN TEMP:  38; 6HR MAX TEMP:  44;

WASKISH        CLEAR     46  46 100 NE3       30.09S
BIG FORK       CLEAR     41  39  93 CALM      30.10S
LONGVILLE      CLEAR     46  45  93 CALM      30.08F
GRAND RAPIDS   CLEAR     46  45  93 CALM      30.10S
CRANE LAKE     CLEAR     41  39  93 CALM      30.12S
ORR            CLEAR     43  39  87 CALM      30.09R
COOK           CLEAR     41  39  93 CALM      30.12R
WALKER         FAIR      52  50  93 CALM      30.08S
$$
MNZ012-019>021-037-051300-
   Northeast Minnesota

CITY           SKY/WX    TMP DP  RH WIND       PRES   REMARKS
DULUTH         PTCLDY    54  50  86 CALM      30.10S
6HR MIN TEMP:  48; 6HR MAX TEMP:  55;

ELY            CLOUDY    45  43  93 CALM      30.12R FOG
HIBBING        CLEAR     42  40  92 CALM      30.11S
EVELETH        MOCLDY    39  39 100 CALM      30.12S VSB 1/2
DULUTH HARBOR  PTCLDY    54  52  94 S3        30.11S
TWO HARBORS    SUNNY     55  50  82 NW5       30.09S
SILVER BAY     SUNNY     46  45  93 CALM      30.09F
GRAND MARAIS     N/A     54  49  83 S3        30.09R
G MARAIS ARPRT SUNNY     50  46  87 N6        30.11S
$$
MNZ029>031-032-039>041-046>048-054>057-064-051300-
   West Central Minnesota

CITY           SKY/WX    TMP DP  RH WIND       PRES   REMARKS
FERGUS FALLS   MOCLDY    61  54  77 E5        30.04S
WHEATON        PTCLDY    50  48  93 SE3       30.05R
MORRIS         PTCLDY    57  54  88 E7        30.02F
ALEXANDRIA     PTCLDY    58  54  86 E6        30.07S
ELBOW LAKE     FAIR      60  56  86 E8        30.03F
WADENA         CLEAR     52  52 100 CALM      30.06S
GLENWOOD       PTCLDY    55  54  94 NE5       30.05F
APPLETON       PTCLDY    55  52  88 CALM      30.02S
BENSON         CLEAR     55  52  88 CALM      30.03S
ORTONVILLE     PTCLDY    55  54  94 CALM      30.03S
MADISON        PTCLDY    54  52  94 CALM      30.03S FOG
WILLMAR        FAIR      55  54  94 CALM      30.05S
$$
MNZ033>034-036-042>043-049>051-058-059-051300-
   Central Minnesota

CITY           SKY/WX    TMP DP  RH WIND       PRES   REMARKS
ST CLOUD       CLEAR     56  54  93 NE3       30.06S
6HR MIN TEMP:  54; 6HR MAX TEMP:  60;

SAUK CENTRE    FAIR      55  53  92 E3        30.06S
PAYNESVILLE    CLEAR     50  50 100 CALM      30.06S
AITKIN         CLEAR     48  43  81 CALM      30.07F
PINE RIVER     CLEAR     50  48  93 CALM      30.11S
BRAINERD       CLEAR     53  51  93 NE3       30.08S
STAPLES        CLEAR     50  50 100 CALM      30.07S
LONG PRAIRIE   FAIR      54  52  94 CALM      30.07S
LITCHFIELD     CLEAR     61  59  94 CALM      30.05S
BUFFALO        CLEAR     58  54  88 CALM      30.06S
MAPLE LAKE     CLEAR     57  55  94 CALM      30.06S
$$
MNZ037-044-045-052-053-051300-
   East Central Minnesota

CITY           SKY/WX    TMP DP  RH WIND       PRES   REMARKS
PRINCETON      CLEAR     57  55  94 CALM      30.07S
MORA           CLEAR     50  50 100 CALM      30.09S
CAMBRIDGE      CLEAR     57  50  77 CALM      30.05S
RUSH CITY      PTCLDY    54  52  95 NE3       30.08R
MOOSE LAKE     CLEAR     50  46  87 CALM      30.08S
HINCKLEY       FAIR      52  52 100 CALM      30.09R
CLOQUET        CLEAR     48  46  93 CALM      30.10S
MCGREGOR       CLEAR     48  46  93 CALM      30.09F
$$
MNZ071>073-080-081-089-090-097-098-051300-
   Southwest Minnesota

CITY           SKY/WX    TMP DP  RH WIND       PRES   REMARKS
MONTEVIDEO     CLEAR     55  54  94 S3        30.04F
GRANITE FALLS  PTCLDY    53  51  95 CALM      30.05S
CANBY          MOCLDY    54  53  94 CALM      30.05R
MARSHALL       MOCLDY    57  52  82 CALM      30.04S
REDWOOD FALLS  PTCLDY    55  53  93 S3        30.03S
OLIVIA         CLEAR     52  48  87 CALM      30.03S
PIPESTONE      MOCLDY    57  54  88 CALM      30.05S
WINDOM         MOCLDY    57  54  88 CALM      30.05R
WORTHINGTON    MOCLDY    54  48  82 CALM      30.06S
JACKSON        MOCLDY    54  52  94 CALM      30.06S
TRACY          MOCLDY    63  55  77 SW6       30.04S
SLAYTON        MOCLDY    57  56  96 CALM      30.06S
$$
MNZ065>067-074>077-082>085-091>093-051300-
   South Central Minnesota

CITY           SKY/WX    TMP DP  RH WIND       PRES   REMARKS
MANKATO        CLEAR     57  52  82 E5        30.05S
NEW ULM        PTCLDY    57  55  94 CALM      30.04S
ST JAMES       PTCLDY    55  54  94 CALM      30.06R
FAIRMONT       MOCLDY    54  46  76 CALM      30.05R
GLENCOE        CLEAR     55  52  92 CALM      30.04S
FARIBAULT      CLEAR     52  52 100 CALM      30.06S
OWATONNA       CLEAR     54  52  94 CALM      30.06S
WASECA         CLEAR     54  52  94 NE3       30.06S
ALBERT LEA     CLEAR     54  54 100 CALM      30.05F
$$
MNZ078>079-086>088-094>096-051300-
   Southeast Minnesota

CITY           SKY/WX    TMP DP  RH WIND       PRES   REMARKS
ROCHESTER      CLEAR     55  52  89 CALM      30.08R
6HR MIN TEMP:  53; 6HR MAX TEMP:  59;

RED WING       CLEAR     57  55  94 E3        30.05R
STANTON        CLEAR     53  51  92 CALM      30.04F
DODGE CENTER   CLEAR     54  52  94 CALM      30.06F
WINONA         CLEAR     55  55 100 CALM      30.06R
AUSTIN         CLEAR     55  54  94 CALM      30.05F
PRESTON        CLEAR     55  51  87 CALM      30.07S
$$
ABBREVIATIONS USED IN REMARKS
   TC - TEMPERATURES IN CELSIUS
  WCI - WIND CHILL INDEX
   HX - HEAT INDEX
  VSB - VISIBILITY
$$


USA.gov is the U.S. government's official web portal to all federal, state and local government web resources and services.